Stations météo

réclame
Mon MeteoGroup
UFS Deutsche Bucht, Allemagne (10007): Température de l'air & dewpoint: 10.01.2018 10:00:00 - 16.01.2018 10:00:00 (CET)UFS Deutsche Bucht, Allemagne (10007): Vitesse du vent & gusts: 10.01.2018 10:00:00 - 16.01.2018 10:00:00 (CET)UFS Deutsche Bucht, Allemagne (10007): Direction du vent: 10.01.2018 10:00:00 - 16.01.2018 10:00:00 (CET)UFS Deutsche Bucht, Allemagne (10007): reduced air pressure: 10.01.2018 10:00:00 - 16.01.2018 10:00:00 (CET)UFS Deutsche Bucht, Allemagne (10007): visibility: 10.01.2018 10:00:00 - 16.01.2018 10:00:00 (CET)UFS Deutsche Bucht, Allemagne (10007): Ensoleillement: 10.01.2018 10:00:00 - 16.01.2018 10:00:00 (CET)
Date & Time tt [°C] td [°C] ff [km/h] ff [knt] fx [km/h] fx [knt] dd ppp [hPa] vv [km] sd [min]
16.01.2018 10:00:00 4,9 1,7 32 18 - - W 984,3 10 0
16.01.2018 09:00:00 5,0 1,5 47 25 68 37 W 984,1 4,3 0
16.01.2018 08:00:00 5,7 2,7 40 21 54 29 WSW 983,7 10 0
16.01.2018 07:00:00 6,1 2,8 40 21 - - WSW 983,6 10 0
16.01.2018 06:00:00 6,2 3,1 40 21 58 31 WSW 983,6 10 0
16.01.2018 05:00:00 6,4 3,3 36 19 54 29 W 984,1 10 0
16.01.2018 04:00:00 5,6 3,3 36 19 - - W 984,8 8 0
16.01.2018 03:00:00 5,3 2,5 65 35 76 41 W 985,1 3,8 0
16.01.2018 02:00:00 6,7 4,2 47 25 58 31 WSW 984,2 10 0
16.01.2018 01:00:00 6,3 4,1 43 23 - - W 983,4 10 0
16.01.2018 00:00:00 6,5 4,9 47 25 65 35 WSW 982,4 10 0
15.01.2018 23:00:00 5,1 3,5 54 29 76 41 S 982,6 5 0
15.01.2018 22:00:00 5,2 3,6 54 29 - - S 984,4 7 0
15.01.2018 21:00:00 5,4 3,7 58 31 72 39 S 986,1 7 0
15.01.2018 20:00:00 5,5 4,1 54 29 76 41 S 988,1 6 0
15.01.2018 19:00:00 5,3 3,8 58 31 - - S 989,5 5 0
15.01.2018 18:00:00 5,5 3,8 58 31 72 39 S 991,6 3,4 0
15.01.2018 17:00:00 5,3 3,4 58 31 72 39 S 993,2 9 0
15.01.2018 16:00:00 5,2 3,2 58 31 - - S 994,7 3,9 0
15.01.2018 15:00:00 5,0 2,9 54 29 68 37 S 996,8 5 0
15.01.2018 14:00:00 4,7 2,6 61 33 76 41 S 999,0 7 0
15.01.2018 13:00:00 4,3 2,5 58 31 - - S 1000,7 7 0
15.01.2018 12:00:00 4,1 2,1 58 31 72 39 S 1002,8 4,6 0
15.01.2018 11:00:00 3,9 1,5 50 27 65 35 S 1004,3 8 0
15.01.2018 10:00:00 3,4 0,8 47 25 - - S 1005,7 9 0
15.01.2018 09:00:00 3,3 0,8 50 27 65 35 S 1007,1 9 0
15.01.2018 08:00:00 2,9 0,3 47 25 58 31 S 1008,0 10 0
15.01.2018 07:00:00 2,8 0,3 47 25 - - S 1009,4 10 0
15.01.2018 06:00:00 2,4 -0,2 50 27 58 31 S 1010,4 10 0
15.01.2018 05:00:00 2,4 -0,6 50 27 61 33 S 1012,0 10 0
15.01.2018 04:00:00 2,4 -0,6 50 27 - - S 1013,6 10 0
15.01.2018 03:00:00 2,2 -0,6 47 25 61 33 S 1014,7 10 0
15.01.2018 02:00:00 2,1 -1,0 50 27 58 31 SSE 1015,5 10 0
15.01.2018 01:00:00 1,9 -0,9 47 25 - - SSE 1016,6 10 0
15.01.2018 00:00:00 1,8 -1,3 47 25 58 31 SSE 1017,7 10 0
14.01.2018 23:00:00 2,1 -1,0 47 25 61 33 SSE 1018,4 10 0
14.01.2018 22:00:00 2,3 -0,6 47 25 - - SSE 1019,2 10 0
14.01.2018 21:00:00 2,4 -0,8 54 29 65 35 SSE 1019,9 10 0
14.01.2018 20:00:00 2,3 -1,0 50 27 61 33 SSE 1020,9 10 0
14.01.2018 19:00:00 2,2 -1,7 50 27 - - SSE 1020,8 10 0
14.01.2018 18:00:00 2,5 -1,6 40 21 47 25 SSE 1022,0 10 0
14.01.2018 17:00:00 2,3 -1,8 36 19 50 27 SSE 1022,5 10 0
14.01.2018 16:00:00 1,9 -2,2 36 19 - - SE 1023,3 10 0
14.01.2018 15:00:00 1,8 -3,0 40 21 54 29 SSE 1023,1 10 0
14.01.2018 14:00:00 1,3 -3,9 40 21 50 27 SE 1023,5 10 6
14.01.2018 13:00:00 1,4 -3,8 40 21 - - SSE 1024,4 10 0
14.01.2018 12:00:00 1,2 -3,8 36 19 50 27 SE 1024,9 10 0
14.01.2018 11:00:00 1,0 -4,2 40 21 50 27 SE 1025,4 10 0
14.01.2018 10:00:00 1,0 -3,8 36 19 - - ESE 1025,6 10 0
14.01.2018 09:00:00 1,0 -3,6 40 21 54 29 SE 1025,6 10 0
14.01.2018 08:00:00 0,9 -3,6 43 23 58 31 ESE 1025,8 10 0
14.01.2018 07:00:00 1,5 -2,5 47 25 - - SE 1026,1 10 0
14.01.2018 06:00:00 1,6 -2,5 43 23 54 29 ESE 1026,1 10 0
14.01.2018 05:00:00 1,5 -2,3 43 23 50 27 SE 1026,3 10 0
14.01.2018 04:00:00 1,1 -2,2 40 21 - - ESE 1026,8 10 0
14.01.2018 03:00:00 1,2 -2,0 40 21 47 25 ESE 1027,0 10 0
14.01.2018 02:00:00 1,4 -2,1 40 21 50 27 ESE 1027,2 10 0
14.01.2018 01:00:00 1,5 -1,8 40 21 - - ESE 1027,3 10 0
14.01.2018 00:00:00 1,7 -1,2 40 21 47 25 ESE 1027,5 10 0
13.01.2018 23:00:00 1,9 -0,6 40 21 54 29 ESE 1027,6 9 0
13.01.2018 22:00:00 2,2 0,4 36 19 - - ESE 1027,5 5 0
13.01.2018 21:00:00 2,6 1,0 36 19 47 25 SE 1027,6 3,8 0
13.01.2018 20:00:00 2,4 0,9 40 21 50 27 SE 1027,6 3,9 0
13.01.2018 19:00:00 2,5 1,0 40 21 - - SE 1027,4 4,1 0
13.01.2018 18:00:00 2,8 1,5 40 21 47 25 SE 1027,7 4,0 0
13.01.2018 17:00:00 2,9 1,6 36 19 47 25 ESE 1027,9 4,7 0
13.01.2018 16:00:00 2,8 1,6 36 19 - - ESE 1027,9 3,7 0
13.01.2018 15:00:00 2,9 1,6 36 19 - - ESE 1028,1 4,3 0
13.01.2018 14:00:00 3,2 1,9 36 19 - - ESE 1028,2 5 0
13.01.2018 13:00:00 3,3 2,0 32 18 - - SE 1028,5 6 0
13.01.2018 12:00:00 3,7 2,5 36 19 47 25 SE 1028,4 7 0
13.01.2018 11:00:00 3,4 2,3 40 21 47 25 SE 1028,4 6 0
13.01.2018 10:00:00 3,3 2,1 32 18 - - SE 1028,1 6 0
13.01.2018 09:00:00 3,2 2,0 36 19 - - SE 1027,9 5 0
13.01.2018 08:00:00 3,3 2,0 36 19 - - SE 1027,8 6 0
13.01.2018 07:00:00 3,4 2,2 36 19 - - SE 1027,7 7 0
13.01.2018 06:00:00 3,3 1,9 36 19 - - ESE 1027,7 7 0
13.01.2018 05:00:00 3,1 1,7 32 18 - - ESE 1028,3 6 0
13.01.2018 04:00:00 2,9 1,5 32 18 - - ESE 1028,7 6 0
13.01.2018 03:00:00 3,0 1,2 32 18 - - ESE 1029,0 9 0
13.01.2018 02:00:00 3,0 1,1 36 19 47 25 ESE 1029,1 9 0
13.01.2018 01:00:00 3,2 1,5 36 19 - - ESE 1029,2 10 0
13.01.2018 00:00:00 2,9 1,2 36 19 - - ESE 1029,5 9 0
12.01.2018 23:00:00 3,3 1,7 32 18 - - ESE 1029,6 10 0
12.01.2018 22:00:00 3,1 1,6 36 19 - - ESE 1029,5 9 0
12.01.2018 21:00:00 3,2 1,8 32 18 - - ESE 1029,3 8 0
12.01.2018 20:00:00 3,5 2,0 40 21 47 25 ESE 1028,9 7 0
12.01.2018 19:00:00 3,4 1,9 36 19 - - ESE 1029,0 5 0
12.01.2018 18:00:00 3,4 1,8 32 18 - - E 1029,0 6 0
12.01.2018 17:00:00 3,4 1,7 32 18 - - ESE 1028,7 5 0
12.01.2018 16:00:00 3,5 1,8 29 16 - - E 1028,6 6 0
12.01.2018 15:00:00 3,4 1,7 36 19 - - E 1028,0 8 0
12.01.2018 14:00:00 3,2 1,7 32 18 - - E 1028,2 6 0
12.01.2018 13:00:00 3,2 1,6 29 16 - - E 1028,4 5 0
12.01.2018 12:00:00 3,7 1,7 29 16 - - E 1028,5 8 0
12.01.2018 11:00:00 3,9 1,8 29 16 - - E 1028,3 9 0
12.01.2018 10:00:00 3,7 1,7 29 16 - - E 1027,7 9 0
12.01.2018 09:00:00 3,8 2,3 29 16 - - E 1026,8 7 0
12.01.2018 08:00:00 3,9 2,4 32 18 - - E 1026,2 6 0
12.01.2018 07:00:00 4,0 2,3 36 19 - - ENE 1025,8 6 0
12.01.2018 06:00:00 4,2 2,9 32 18 - - ENE 1025,7 6 0
12.01.2018 05:00:00 4,2 2,6 36 19 - - ENE 1025,6 8 0
12.01.2018 04:00:00 4,1 2,4 25 14 - - NE 1025,5 9 0
12.01.2018 03:00:00 4,3 2,7 18 10 - - NNE 1025,4 10 0
12.01.2018 02:00:00 3,6 1,8 14 8 - - NNE 1025,3 10 0
12.01.2018 01:00:00 3,4 1,6 22 12 - - ENE 1025,0 9 0
12.01.2018 00:00:00 4,3 3,0 22 12 - - ENE 1024,6 7 0
11.01.2018 23:00:00 4,8 3,6 18 10 - - ENE 1023,8 5 0
11.01.2018 22:00:00 4,7 3,5 22 12 - - NE 1023,4 5 0
11.01.2018 21:00:00 4,8 3,6 18 10 - - NE 1022,7 7 0
11.01.2018 20:00:00 4,7 3,6 18 10 - - NE 1022,4 5 0
11.01.2018 19:00:00 4,5 3,4 22 12 - - ENE 1022,1 6 0
11.01.2018 18:00:00 4,4 3,3 29 16 - - ENE 1021,5 6 0
11.01.2018 17:00:00 4,5 3,5 25 14 - - NE 1020,8 6 0
11.01.2018 16:00:00 4,6 3,5 22 12 - - NE 1020,2 5 0
11.01.2018 15:00:00 4,6 3,4 18 10 - - NE 1019,7 7 0
11.01.2018 14:00:00 5,1 3,8 11 6 - - NNE 1019,3 6 0
11.01.2018 13:00:00 5,0 3,6 11 6 - - E 1019,1 6 0
11.01.2018 12:00:00 5,2 3,9 11 6 - - E 1018,8 6 0
11.01.2018 11:00:00 5,2 3,9 11 6 - - E 1018,4 7 12
11.01.2018 10:00:00 5,5 4,2 18 10 - - E 1017,2 7 0
11.01.2018 09:00:00 5,7 4,5 11 6 - - ESE 1016,5 7 0
11.01.2018 08:00:00 5,6 4,4 11 6 - - SE 1015,4 7 0
11.01.2018 07:00:00 5,6 4,4 18 10 - - ESE 1014,6 7 0
11.01.2018 06:00:00 5,7 4,5 18 10 - - E 1013,8 8 0
11.01.2018 05:00:00 5,7 4,5 14 8 - - SE 1013,5 8 0
11.01.2018 04:00:00 5,8 4,5 22 12 - - E 1013,3 8 0
11.01.2018 03:00:00 5,9 4,7 18 10 - - ESE 1013,1 8 0
11.01.2018 02:00:00 5,9 4,6 18 10 - - ESE 1012,5 8 0
11.01.2018 01:00:00 5,9 4,7 22 12 - - ESE 1012,2 8 0
11.01.2018 00:00:00 6,1 5,1 14 8 - - SE 1012,0 6 0
10.01.2018 23:00:00 5,8 4,8 22 12 - - SE 1011,6 5 0
10.01.2018 22:00:00 5,8 4,7 18 10 - - SE 1011,1 6 0
10.01.2018 21:00:00 5,9 4,8 18 10 - - SSE 1010,9 6 0
10.01.2018 20:00:00 5,8 4,8 22 12 - - SSE 1010,5 5 0
10.01.2018 19:00:00 5,9 4,6 25 14 - - SSE 1010,1 6 0
10.01.2018 18:00:00 5,8 4,5 25 14 - - SE 1009,7 8 0
10.01.2018 17:00:00 5,8 4,4 25 14 - - SE 1009,3 7 0
10.01.2018 16:00:00 5,8 4,5 22 12 - - SE 1009,1 7 6
10.01.2018 15:00:00 5,5 4,2 25 14 - - SE 1008,7 7 0
10.01.2018 14:00:00 5,5 4,2 22 12 - - SE 1008,9 7 0
10.01.2018 13:00:00 5,5 4,2 22 12 - - SE 1009,2 7 0
10.01.2018 12:00:00 5,3 3,9 22 12 - - SE 1009,6 8 0
10.01.2018 11:00:00 5,6 4,1 25 14 - - SSE 1009,5 8 0
10.01.2018 10:00:00 5,3 3,9 25 14 - - SSE 1009,5 7 0

tt = Température de l'air
td = dewpoint
ff = Vitesse du vent
fx = gusts
dd = Direction du vent
ppp = reduced air pressure
vv = visibility
sd = Ensoleillement

stations d'obs. à proximité